Location: ?????????
(41.2286°N, 23.0068°E)
Time: 07:54:22
(UTC+00:00)

Cosmos 1943 Rocket - Pass Details

Date: 08 November 2025
Orbit: 812 x 841 km, 71.0° (Epoch: 05 December)

Event Time Altitude Azimuth Distance (km) Brightness Sun altitude
Exits shadow 02:24:37 - 359° (N) 2,559 4.7 -30.9°
Reaches altitude 10° 02:25:06 10° 2° (N) 2,421 4.6 -30.8°
Maximum altitude 02:29:20 22° 52° (NE) 1,725 4.3 -30.0°
Drops below altitude 10° 02:33:31 10° 102° (ESE) 2,401 5.4 -29.2°
Sets 02:36:29 0° 118° (ESE) 3,326 6.2 -28.6°
